Track STARLINK-5577 now! 10-day predictions STARLINK-5577 is classified as:
1 55751U 23028L 24324.53052020 .00000869 00000-0 80566-4 0 9992 2 55751 69.9998 2.5940 0003063 269.1673 90.9135 14.98334869 94860